TimeCST,TemperatureF,Dew PointF,Humidity,Sea Level PressureIn,VisibilityMPH,Wind Direction,Wind SpeedMPH,Gust SpeedMPH,PrecipitationIn,Events,Conditions,WindDirDegrees,DateUTC
12:56 AM,37.0,32.0,82,30.01,10.0,SSW,8.1,-,N/A,,Mostly Cloudy,200,2012-11-06 06:56:00
1:56 AM,37.9,33.1,83,29.97,10.0,SSW,11.5,-,0.00,,Clear,200,2012-11-06 07:56:00
2:56 AM,39.0,34.0,82,29.97,10.0,WSW,8.1,-,N/A,,Clear,240,2012-11-06 08:56:00
3:56 AM,39.9,34.0,79,29.95,10.0,West,10.4,-,N/A,,Clear,260,2012-11-06 09:56:00
4:56 AM,42.1,36.0,79,29.98,10.0,WNW,12.7,-,N/A,,Clear,290,2012-11-06 10:56:00
5:56 AM,44.1,35.1,71,30.00,10.0,NW,18.4,25.3,N/A,,Clear,320,2012-11-06 11:56:00
6:56 AM,42.1,32.0,67,30.03,10.0,WNW,13.8,-,N/A,,Clear,300,2012-11-06 12:56:00
7:56 AM,42.1,32.0,67,30.06,10.0,WNW,16.1,-,N/A,,Clear,300,2012-11-06 13:56:00
8:56 AM,45.0,32.0,60,30.06,10.0,NW,17.3,24.2,N/A,,Clear,310,2012-11-06 14:56:00
9:56 AM,48.9,30.0,48,30.06,10.0,NW,23.0,27.6,N/A,,Clear,310,2012-11-06 15:56:00
10:56 AM,52.0,27.0,38,30.06,10.0,NNW,31.1,41.4,N/A,,Clear,330,2012-11-06 16:56:00
11:56 AM,54.0,27.0,35,30.04,10.0,NW,31.1,39.1,N/A,,Clear,320,2012-11-06 17:56:00
12:56 PM,55.0,26.1,33,30.03,10.0,NW,26.5,39.1,N/A,,Clear,320,2012-11-06 18:56:00
1:56 PM,55.9,26.1,32,30.03,10.0,NW,21.9,34.5,N/A,,Clear,310,2012-11-06 19:56:00
2:56 PM,55.9,27.0,33,30.03,10.0,NW,19.6,36.8,N/A,,Clear,320,2012-11-06 20:56:00
3:56 PM,54.0,26.1,34,30.05,10.0,NNW,27.6,36.8,N/A,,Clear,330,2012-11-06 21:56:00
4:56 PM,52.0,26.1,37,30.06,10.0,NNW,18.4,27.6,N/A,,Clear,330,2012-11-06 22:56:00
5:56 PM,48.9,26.1,41,30.08,10.0,NW,12.7,-,N/A,,Clear,320,2012-11-06 23:56:00
6:56 PM,45.0,26.1,48,30.09,10.0,WNW,9.2,-,N/A,,Clear,290,2012-11-07 00:56:00
7:56 PM,43.0,26.1,51,30.10,10.0,WNW,8.1,-,N/A,,Clear,290,2012-11-07 01:56:00
8:56 PM,39.9,26.1,58,30.10,10.0,WNW,9.2,-,N/A,,Clear,290,2012-11-07 02:56:00
9:56 PM,37.9,26.1,62,30.12,10.0,WNW,9.2,-,N/A,,Clear,300,2012-11-07 03:56:00
10:56 PM,36.0,25.0,64,30.12,10.0,WNW,6.9,-,N/A,,Clear,290,2012-11-07 04:56:00
11:56 PM,37.0,26.1,65,30.12,10.0,West,9.2,-,N/A,,Clear,280,2012-11-07 05:56:00